Content
SEND FEEDBACK

Daily
Averages
Monthly
Summary
United States of America

AGAT, GUAM


Home > North America > United States > Guam
Elevation: 364 feet     Latitude: 13 33N     Longitude: 144 50E

WEATHER
 
SELECT A DAY
Number of Records: 209,379;   Date Range: 1/1/95 - 9/21/14
 
SHARE

PRINT THIS DATA

[ ← Previous Day ]
WEATHER ALMANAC - JUNE 28, 2013
[ Next Day → ]
[ °C ]   °F
We're sorry. There is no daily almanac available for Agat, Guam on June 28, 2013.
WEATHER BY HOUR - JUNE 28, 2013
[ °C ]   °F
Local TimeTemperatureDewpointHumidityBarometerVisibilityWind DirectionWind SpeedGust SpeedPrecipitationEventsConditions
1:54 AM81.0 °F75.0 °F82 %29.84 in10.0 miEast (80°)3.5 mph0.01 inOvercast
2:54 AM81.0 °F77.0 °F88 %29.83 in10.0 miESE (110°)4.6 mphPartly Cloudy
3:54 AM80.1 °F75.0 °F85 %29.83 in10.0 miEast (90°)3.5 mph0.00 inScattered Clouds
4:54 AM81.0 °F77.0 °F88 %29.84 in10.0 miESE (120°)3.5 mph0.00 inScattered Clouds
5:54 AM81.0 °F75.9 °F85 %29.85 in10.0 miEast (80°)3.5 mphClear
6:54 AM82.9 °F78.1 °F85 %29.87 in10.0 miCalmPartly Cloudy
7:26 AM82.4 °F78.8 °F89 %29.90 in10.0 miESE (120°)5.8 mphMostly Cloudy
7:43 AM82.4 °F78.8 °F89 %29.90 in10.0 miEast (100°)5.8 mph0.00 inMostly Cloudy
7:54 AM84.0 °F78.1 °F82 %29.88 in10.0 miEast (90°)5.8 mph0.00 inMostly Cloudy
8:54 AM82.0 °F73.9 °F76 %29.88 in10.0 miEast (80°)6.9 mphScattered Clouds
9:54 AM87.1 °F77.0 °F72 %29.88 in10.0 miEast (90°)11.5 mphPartly Cloudy
10:54 AM88.0 °F77.0 °F70 %29.86 in10.0 miEast (90°)12.7 mphPartly Cloudy
11:54 AM88.0 °F77.0 °F70 %29.85 in10.0 miEast (100°)10.4 mphPartly Cloudy
12:54 PM89.1 °F77.0 °F67 %29.84 in10.0 miEast (100°)11.5 mphScattered Clouds
1:39 PM84.2 °F78.8 °F84 %29.85 in7.0 miESE (110°)8.1 mph0.02 inRainLight Rain
1:52 PM84.2 °F78.8 °F84 %29.84 in10.0 miESE (120°)8.1 mph0.02 inScattered Clouds
1:54 PM84.9 °F78.1 °F80 %29.82 in10.0 miESE (110°)8.1 mph0.02 inScattered Clouds
2:54 PM88.0 °F77.0 °F70 %29.81 in10.0 miESE (110°)10.4 mphScattered Clouds
3:54 PM88.0 °F77.0 °F70 %29.81 in10.0 miSE (130°)10.4 mph18.4 mphPartly Cloudy
4:54 PM87.1 °F77.0 °F72 %29.81 in10.0 miESE (110°)11.5 mphPartly Cloudy
5:54 PM86.0 °F77.0 °F74 %29.82 in10.0 miEast (100°)8.1 mphPartly Cloudy
6:54 PM84.9 °F77.0 °F77 %29.83 in10.0 miESE (110°)8.1 mphPartly Cloudy
7:54 PM84.9 °F77.0 °F77 %29.86 in10.0 miEast (100°)6.9 mphScattered Clouds
8:54 PM84.9 °F77.0 °F77 %29.87 in10.0 miEast (100°)8.1 mphMostly Cloudy
9:54 PM82.9 °F77.0 °F82 %29.87 in10.0 miEast (100°)5.8 mph0.05 inMostly Cloudy
10:05 PM82.4 °F78.8 °F89 %29.90 in10.0 miESE (110°)5.8 mphOvercast
10:17 PM82.4 °F78.8 °F89 %29.90 in7.0 miESE (110°)6.9 mph0.02 inRainLight Rain
10:54 PM82.0 °F75.9 °F82 %29.88 in10.0 miESE (110°)5.8 mph0.02 inMostly Cloudy
11:54 PM82.9 °F78.1 °F85 %29.87 in10.0 miEast (90°)8.1 mph0.00 inMostly Cloudy
Hourly data recorded from PGUM, located miles away from Agat, Guam







STORIES FROM OUR PARTNERS